2014-2018 IMT Hack Dökümanları Forum Database Total: 13254 / FORUMA ÜYE OL !

2008 / 2014 veritabanı için tıkla

# Konu baslik Konu sahibi Tarih
7601 C yi Tamamen Silen Bat Virüsü JaR 20.05.2015 18:09:30
7602 Spotify Music 2.7.0.883 Premium Mod APK JaR 20.05.2015 16:44:43
7603 Hakin9 Pdf Dökümanları (İngilizce) JaR 20.05.2015 15:56:53
7604 ufc.tv / 93 hesap batuhank 20.05.2015 15:08:25
7605 XenForo 1.4.7 NULLED JaR 20.05.2015 13:56:55
7606 Dreamhost.com / 16 hesap batuhank 20.05.2015 13:02:10
7607 Kişisel Template - Flexy HTML Ravendark 20.05.2015 10:53:12
7608 Sabaha karşı 04:31 p4p4z 20.05.2015 03:45:14
7609 Cep numarası kime ait adresi? wanqo 20.05.2015 01:44:14
7610 Game Hacking Trainer Cheats x-Soldier 19.05.2015 22:37:10
7611 EX Machina - [Türkçe Dublaj - BRRip] #SyNt4x 19.05.2015 22:25:32
7612 PinThis v1.4.3 - Pinterest WP Theme #SyNt4x 19.05.2015 22:14:51
7613 Dosya Yükleme Sitesi Emre Saygin 19.05.2015 21:43:48
7614 Merhaba millet Emre Saygin 19.05.2015 21:24:48
7615 Plurk.com / 13 Hesap batuhank 19.05.2015 20:34:50
7616 Metin Işık - Deli Olurum Sana Ben / Efsane Şarkı batuhank 19.05.2015 19:35:30
7617 Carsı Pazar [Torrent] ErasDomates 19.05.2015 19:27:58
7618 pizzahut.com.tr / 15 hesap batuhank 19.05.2015 19:20:41
7619 Protasarım Webtasarımcı Scripti V4.2 (Raven) +SQL Sade Tasarım "Edit" Ravendark 19.05.2015 18:09:43
7620 30 Rapidgator hesabı batuhank 19.05.2015 16:46:59
7621 Wordpress BuzzNews Teması n0s12 19.05.2015 16:11:06
7622 2 Adet E-Ticaret Scripti 3 Farklı Tema - 500 TL Değerinde Ravendark 19.05.2015 15:23:00
7623 Ege Üniversitesi / ege.edu.tr / 16 hesap batuhank 19.05.2015 14:19:09
7624 ttnetwifi.com.tr / 12 Hesap batuhank 19.05.2015 14:15:39
7625 Seo WP - Social Media Wordpress Theme Free CD4rke 19.05.2015 13:40:53
7626 AK Elchi - Çok yanlış kişiye bulaştınız :D #SyNt4x 19.05.2015 11:22:11
7627 deepwebtr.net / 8 hesap batuhank 19.05.2015 11:15:09
7628 blog.com 10 hesap batuhank 19.05.2015 10:51:20
7629 seedoff.net(torrent) / 13 Hesap batuhank 19.05.2015 09:32:41
7630 pcloud.com / account batuhank 19.05.2015 08:55:07
7631 Cve 2015-0359 Sniffer 19.05.2015 08:30:48
7632 bedava ssl nerden alabilirim nemorytr 19.05.2015 07:37:25
7633 Ferdi Tayfur - Canına Okuyacağım batuhank 19.05.2015 06:58:52
7634 Protasarım V4.1.1 (eyapim) +SQL 350 TL Değerinde Ravendark 19.05.2015 02:16:45
7635 Merhaba imhatimi Gergedanbey 18.05.2015 22:54:27
7636 Google'ın mobilde arama sonuçlarına eklemesi beklenen “satın al” butonu nasıl çalışacak? UcanInek 18.05.2015 22:46:31
7637 Windows tarihe karışıyor Ravendark 18.05.2015 22:39:46
7638 SQL Injection Video x-Soldier 18.05.2015 22:05:28
7639 Wordpress Film Teması ( Keremiya v4 Edit ) Sizofren 18.05.2015 20:14:14
7640 Selamun aleyküm imha timi yusufgun25 18.05.2015 17:45:36
7641 [İstek] Dizi Teması Sizofren 18.05.2015 17:42:51
7642 vipdepo.net veya buzlasvip.com üyeligi olan? / acil lazım batuhank 18.05.2015 17:19:41
7643 yedi24banko.com / 2 hesap batuhank 18.05.2015 15:58:52
7644 İrc botnet proxy saldırı önlemi beyin fırtınası House 18.05.2015 14:48:32
7645 Yücelemlak.com.tr Emlak Scripti Ravendark 18.05.2015 14:09:53
7646 wordpress / 1000 dork batuhank 18.05.2015 13:26:55
7647 102 İsrail Wordpress Dorku batuhank 18.05.2015 13:26:07
7648 2 Nesine.com Hesabı batuhank 18.05.2015 13:24:49
7649 Bakü 2015 yay olimpiyat oyunlari..Yorumlarinizi bekliyorum Ares 18.05.2015 11:16:50
7650 Kodlama veya Hacker üzerine bildiğiniz Blog yazarı var mı ? Mr 009 18.05.2015 09:14:17
Hack forum